Theta_e
354 354 352 353 352 353 351 349 349 353 353 350 349 347 349 351 351 350 347 349 353 353 353 354 353 353 353 350 348 351 349 339 337 339 339 340 343 342 346 347 349 348 344
351 354 353 351 352 352 351 350 348 352 353 353 352 349 354 352 352 351 352 352 353 353 353 352 352 352 351 346 345 344 342 340 339 341 344 347 343 341 343 347 350 344 344
353 352 354 352 353 348 349 348 347 353 352 347 352 352 351 350 353 351 352 352 352 351 351 351 352 352 351 346 344 345 342 341 339 345 351 349 349 341 343 345 344 345 347
352 352 353 347 347 351 349 349 349 351 351 348 352 348 351 350 351 353 353 353 351 351 351 351 350 350 349 349 348 347 345 344 344 349 348 349 346 343 343 344 348 345 345
352 354 352 351 350 350 352 351 348 352 350 352 352 352 351 352 353 352 351 351 352 352 352 352 350 347 345 344 344 344 343 343 346 350 350 348 345 337 339 347 345 346 350
352 352 351 352 353 349 352 346 351 349 352 353 352 350 353 347 352 345 354 349 349 348 348 351 350 350 348 348 347 344 341 344 346 340 344 347 343 329 331 350 352 347 340
351 351 354 351 347 351 352 346 352 351 352 349 349 351 347 347 351 348 344 343 343 341 340 340 346 348 345 346 347 343 338 347 346 334 342 336 341 333 334 340 350 345 341
353 351 352 348 341 350 353 346 353 354 354 353 349 349 344 340 336 334 333 334 336 337 335 334 334 335 335 339 338 338 340 343 350 342 337 340 345 341 340 340 344 345 344
351 351 350 342 343 351 351 353 353 346 346 342 335 332 331 333 335 340 346 344 346 347 346 345 344 343 343 342 340 339 341 342 348 340 337 334 342 343 344 343 344 345 348
351 349 343 344 349 352 354 347 342 332 332 337 337 340 347 347 349 350 352 346 344 345 345 345 345 344 342 341 339 339 341 350 346 344 336 338 341 344 341 343 345 345 343
352 350 348 350 352 353 348 336 336 343 346 351 351 351 352 353 351 346 349 346 346 344 347 345 343 343 345 347 345 346 346 348 339 344 339 341 343 343 344 343 343 346 346
350 352 349 345 349 350 341 347 348 351 353 354 355 355 354 350 343 351 348 352 351 347 352 343 347 347 342 347 345 348 351 338 349 342 343 343 342 340 342 340 343 345 346
348 352 349 342 344 345 345 349 350 353 354 355 354 353 356 348 350 351 353 349 350 351 354 342 351 351 344 350 347 350 346 345 346 350 343 342 343 342 343 344 346 346 346
346 348 344 343 342 344 344 349 349 352 348 353 351 350 351 348 350 347 351 348 349 349 351 349 349 350 349 349 346 346 346 346 347 349 343 341 341 343 344 345 343 344 346
346 345 346 346 346 344 348 351 348 351 351 353 353 353 350 351 352 356 350 351 344 349 348 350 348 348 346 348 346 346 346 346 345 348 347 345 344 341 342 344 345 345 345
348 345 346 345 348 354 353 349 352 351 353 349 351 352 354 354 333 349 353 347 350 350 348 347 348 348 343 342 341 341 345 344 347 346 348 346 346 342 342 340 340 340 340
348 344 344 347 351 354 353 353 351 350 351 350 351 353 354 352 355 352 353 350 353 351 352 349 351 351 349 351 348 338 342 345 346 347 348 349 348 344 344 339 336 335 335
347 344 342 346 353 353 353 353 353 349 351 349 354 351 353 353 353 354 354 349 354 355 351 352 352 353 354 349 347 349 346 343 347 346 345 350 347 347 342 335 331 333 334
348 343 342 350 352 354 354 353 354 351 349 348 351 352 354 353 353 350 356 351 354 354 355 354 353 354 353 352 347 349 349 345 347 347 340 349 342 339 340 333 328 333 334
349 345 346 353 352 353 352 353 353 345 350 348 349 350 349 352 353 354 355 355 354 355 356 354 355 353 355 351 348 345 342 345 342 341 341 341 337 333 331 331 328 329 334
349 346 349 352 353 353 351 353 354 353 349 348 349 348 352 352 352 351 353 357 351 357 357 355 353 354 354 349 344 340 338 341 333 338 337 335 338 334 330 330 329 328 334
351 350 349 353 354 354 354 353 353 352 350 349 349 348 351 351 351 352 355 357 353 356 354 354 354 354 355 351 346 339 346 340 334 334 333 336 330 328 327 327 327 330 329
350 351 349 354 356 354 353 351 354 354 350 348 346 347 352 350 351 353 356 356 356 354 353 356 356 356 349 345 339 340 345 343 337 333 330 328 326 326 327 327 327 327 328
350 351 350 352 355 353 353 353 353 354 350 348 346 351 350 350 352 353 355 355 356 355 355 358 356 351 351 346 334 332 333 331 341 336 327 328 327 326 326 328 326 328 327
350 350 351 351 355 354 354 355 352 353 350 348 347 350 346 352 352 354 354 356 356 356 357 356 355 353 348 343 335 334 329 327 326 331 333 329 326 326 325 326 326 326 326
350 350 351 353 354 353 353 352 354 352 350 351 347 351 350 352 355 354 357 357 356 357 359 356 353 351 344 341 331 334 328 328 328 329 331 330 328 326 326 326 326 325 325
Wind_Speed
13 10 11 12 13 12 11 12 13 13 12 11 12 12 13 13 13 13 15 13 12 12 11 11 11 9 8 8 9 9 8 9 10 10 12 15 18 15 14 12 9 7 10
16 12 12 12 12 12 12 12 11 11 10 11 12 12 12 12 11 12 13 13 12 11 11 10 9 8 7 8 8 8 6 5 6 9 11 12 16 15 14 11 11 8 10
18 14 11 13 12 12 12 12 11 11 11 10 12 11 10 12 12 13 13 12 11 10 9 8 7 6 5 5 4 3 3 2 5 8 9 7 7 14 14 12 11 10 10
17 16 12 12 12 11 11 12 11 11 11 12 11 12 12 12 12 11 10 11 10 8 7 6 5 5 3 2 1 1 2 3 5 8 10 14 10 10 12 11 12 10 8
20 16 14 11 13 12 11 12 12 12 10 10 10 10 11 11 9 10 8 9 8 6 5 3 2 2 1 1 1 2 5 7 14 20 19 15 17 11 11 12 11 10 9
19 16 13 11 12 12 11 11 11 11 10 11 10 10 9 8 8 9 6 6 5 4 3 1 1 3 2 3 4 5 7 8 9 16 7 15 10 10 11 12 13 11 8
20 16 12 12 12 13 12 10 11 11 11 9 10 8 7 7 7 6 5 4 3 1 0 2 3 4 5 6 7 7 8 3 4 9 11 15 2 8 9 11 10 9 8
20 16 12 11 12 12 11 11 10 10 10 8 8 6 5 5 6 6 5 3 1 1 3 4 5 5 6 7 8 8 7 3 9 7 21 6 1 8 8 10 8 8 7
20 16 12 10 13 12 11 9 8 8 7 6 6 7 7 8 7 7 8 4 1 2 4 5 6 7 7 8 8 10 7 6 18 19 12 10 13 7 8 8 9 8 7
18 15 16 13 13 12 10 8 8 8 8 6 5 3 6 6 5 2 4 2 1 2 5 7 8 8 10 11 10 9 9 4 10 13 8 6 6 5 6 6 7 7 7
16 17 15 11 13 15 8 8 10 9 6 2 3 4 4 2 3 3 3 4 4 4 5 7 9 7 10 10 13 17 13 10 7 6 9 12 10 6 6 6 5 5 6
17 17 14 14 12 14 12 7 7 5 4 4 5 10 11 11 7 10 10 4 6 5 4 12 10 8 14 7 7 10 2 12 9 18 12 11 8 5 6 5 4 5 5
21 24 20 17 15 13 10 10 9 7 4 6 9 7 11 6 6 8 5 11 6 1 6 6 9 10 8 3 3 3 9 8 7 16 12 9 7 6 6 5 3 2 3
18 20 16 14 11 14 8 9 6 8 7 7 6 11 13 4 8 10 7 10 10 2 4 6 6 5 5 1 9 8 13 5 15 9 11 9 8 5 5 4 4 2 2
17 15 19 14 7 11 3 10 7 0 3 13 8 10 7 10 11 15 5 3 12 14 12 8 5 6 10 8 4 6 9 8 8 10 7 8 9 6 4 3 2 3 4
19 17 16 14 11 8 4 9 7 2 4 13 10 8 9 12 10 8 12 9 11 9 5 8 6 5 12 10 8 10 11 7 8 8 5 7 10 9 10 9 8 6 5
18 17 18 16 13 9 9 6 5 4 1 8 7 9 9 5 3 8 6 7 11 13 8 10 15 15 10 14 15 12 11 6 6 8 16 7 10 6 11 12 12 10 8
19 21 19 17 16 12 11 8 3 5 1 3 10 9 7 6 14 11 8 10 11 13 13 17 17 19 16 16 16 12 5 7 4 1 3 5 10 6 8 13 15 10 5
16 23 20 18 17 14 12 6 3 3 5 0 7 10 5 8 13 3 11 9 12 15 12 14 17 19 17 19 20 8 6 3 2 10 7 8 11 8 6 10 14 9 6
17 23 20 16 20 15 13 10 7 7 2 3 5 9 5 7 7 8 3 6 7 8 13 14 13 16 16 17 18 21 22 4 5 2 6 14 12 10 12 10 9 10 3
22 23 20 15 19 17 15 11 12 16 9 7 3 3 2 4 8 12 10 9 9 7 8 11 14 15 13 12 15 22 21 18 16 14 13 10 10 10 9 8 10 6 5
25 23 22 19 18 17 13 15 10 10 10 7 9 5 2 1 5 7 8 10 8 9 4 9 10 15 11 8 9 11 4 7 21 14 10 7 10 8 7 10 11 6 5
27 28 26 21 20 19 15 12 5 2 5 2 3 6 6 1 3 3 4 6 9 13 7 10 11 10 13 15 13 7 3 3 13 12 16 9 8 6 3 7 6 8 5
28 28 27 24 22 21 17 15 12 8 9 14 13 13 7 4 3 3 2 5 6 8 7 9 11 11 14 14 15 13 5 7 2 4 15 12 11 9 6 4 5 8 6
27 29 28 29 23 22 19 14 16 14 11 5 5 7 4 8 7 4 2 3 5 8 7 6 8 9 12 12 12 12 12 13 14 5 4 13 14 14 3 4 5 8 11
28 29 30 30 28 24 23 22 14 16 14 6 11 6 8 13 11 10 3 1 4 4 5 4 5 8 9 9 8 13 10 10 10 8 4 9 13 18 9 7 8 8 10
Wind_Direction
115 106 99 94 96 106 103 95 88 84 82 81 80 79 78 80 79 82 83 86 89 87 88 90 96 97 96 94 96 99 110 120 124 118 120 123 122 117 114 112 128 110 109
120 112 110 103 99 93 95 92 88 89 85 82 88 81 80 82 89 84 87 86 84 84 91 91 93 98 101 96 92 92 103 128 146 145 147 144 135 130 123 123 114 131 117
113 115 108 104 99 98 96 98 99 93 90 90 90 92 95 92 87 89 87 88 88 89 92 98 100 93 92 102 101 94 86 151 192 184 163 146 161 136 135 132 142 143 132
124 119 111 108 108 108 104 108 103 103 102 99 101 99 97 96 97 92 92 94 92 95 100 106 105 99 92 83 59 13 338 284 255 238 204 163 175 149 142 138 136 137 137
119 114 108 111 116 113 107 105 106 107 106 110 104 106 102 99 100 94 92 90 90 91 92 89 75 88 77 22 327 307 295 301 327 318 303 198 158 144 149 143 140 137 148
120 112 117 119 115 112 104 113 105 107 107 107 112 110 111 110 102 102 102 95 93 87 88 66 347 307 292 288 290 293 295 336 342 331 298 162 142 130 155 143 156 160 161
113 116 118 126 117 115 111 109 108 106 107 109 112 120 119 114 111 119 112 96 95 99 232 266 262 270 279 286 288 285 288 347 318 81 229 109 146 131 149 144 156 154 150
121 125 125 126 123 117 112 117 113 111 117 124 128 132 125 128 137 130 120 117 140 251 269 270 275 280 289 294 297 297 302 333 286 184 124 120 227 153 142 137 153 150 153
121 131 137 130 131 126 123 123 124 129 135 132 139 144 147 164 156 143 128 112 85 314 288 285 288 292 298 299 299 303 305 334 63 60 40 86 235 169 140 143 155 157 154
127 141 139 146 142 136 132 134 135 133 119 117 153 143 183 198 185 151 210 81 67 322 308 305 305 301 302 297 283 291 309 111 34 338 298 255 166 168 163 163 163 168 165
148 149 157 155 158 144 137 135 138 135 138 147 317 36 293 306 112 240 205 8 33 18 356 339 318 329 329 337 314 298 300 135 4 154 148 165 136 160 181 178 165 182 185
174 171 158 145 153 165 140 151 168 162 103 82 354 343 35 5 9 106 45 334 326 24 18 18 293 346 331 278 331 5 50 2 194 125 140 126 133 136 158 150 157 184 201
171 172 160 144 170 172 145 172 173 161 156 116 67 357 58 34 42 49 50 20 2 327 103 49 14 172 34 78 277 236 283 356 102 154 118 106 101 102 116 131 129 155 221
159 156 151 149 175 125 167 180 143 137 81 167 75 45 22 33 48 48 24 38 42 43 121 30 357 246 287 258 52 5 339 224 74 113 103 80 75 92 112 103 82 53 316
159 138 130 144 121 141 195 100 128 330 105 101 88 60 54 24 9 343 347 40 30 40 34 34 6 350 330 304 64 44 342 33 68 51 84 79 65 81 88 71 45 356 340
148 145 132 147 151 151 111 137 103 135 100 95 93 86 44 57 92 41 26 28 49 30 23 8 328 330 354 353 16 360 339 351 71 58 347 77 68 68 72 58 43 20 13
153 154 144 153 163 156 144 150 183 156 46 128 96 91 60 36 340 344 20 28 29 15 357 2 352 21 355 357 9 343 297 13 82 54 58 105 88 91 81 51 37 25 26
160 149 157 164 160 159 154 182 213 132 21 84 138 93 71 31 16 1 56 45 11 0 24 13 0 358 1 341 334 295 294 309 177 213 24 120 90 99 96 56 27 10 31
153 150 174 171 156 163 158 177 160 177 154 227 138 86 61 32 43 350 34 27 19 25 37 19 355 352 351 354 343 348 244 72 23 93 19 130 89 57 49 39 19 355 11
178 154 180 164 159 159 166 184 182 173 239 154 102 77 44 12 9 347 20 31 18 17 23 13 1 351 8 4 347 337 334 79 26 358 23 118 90 49 16 9 42 3 348
176 161 184 173 158 160 170 183 210 191 211 190 135 107 82 11 359 5 3 0 11 29 22 6 355 355 341 12 1 357 356 82 37 60 55 31 67 32 29 46 12 12 10
167 173 183 178 171 176 185 198 197 231 184 101 116 130 156 13 352 3 359 5 4 4 17 20 19 359 0 360 11 6 338 327 12 20 17 85 38 36 20 0 352 21 348
171 173 179 183 183 190 190 205 208 113 89 114 220 206 173 189 328 332 347 349 340 347 14 7 30 18 356 12 40 50 1 357 332 348 17 44 22 18 27 9 20 3 345
173 173 179 187 187 192 209 194 195 199 205 217 212 148 154 208 254 277 346 342 337 346 12 19 15 10 8 8 19 26 43 315 307 339 337 17 19 28 36 52 36 16 33
183 177 181 184 190 193 206 200 186 212 222 170 178 159 206 223 244 224 267 335 340 344 355 26 11 16 25 18 4 2 13 5 22 357 303 342 359 345 14 61 69 23 9
192 181 182 183 190 194 197 209 198 209 231 241 203 182 233 246 225 197 182 11 314 330 24 17 8 30 24 22 17 16 28 21 6 356 339 339 349 330 337 89 37 18 12